Regional Weather Roundup
Issued by NWS

Home | Current Version | Previous Version | Graphics & Text | Print | Product List | Glossary Off
Versions: 1 2 3 4 5 6 7 8 9 10 11 12 13 14 15 16 17 18 19 20 21 22 23 24 25 26 27 28 29 30 31 32 33 34 35 36 37 38 39 40 41 42 43 44 45 46 47 48 49 50

000
ASUS43 KMPX 171701
RWRMN
WEATHER ROUNDUP FOR MINNESOTA
NATIONAL WEATHER SERVICE TWIN CITIES/CHANHASSEN MN
1100 AM CST FRI NOV 17 2017


NOTE: "FAIR" INDICATES FEW OR NO CLOUDS BELOW 12,000 FEET WITH NO
SIGNIFICANT WEATHER AND/OR OBSTRUCTIONS TO VISIBILITY. N/A MEANS
CURRENT SKY AND/OR WEATHER CONDITIONS ARE NOT AVAILABLE.

MNZ060>063-068>070-171800-
   Twin Cities Metro

CITY           SKY/WX    TMP DP  RH WIND       PRES   REMARKS
TWIN CITIES    DRIZZLE   37  36  96 S9        29.67F FOG
ST PAUL        CLOUDY    36  36 100 SE8       29.69F FOG
CRYSTAL        CLOUDY    36  32  85 SE7       29.66S FOG
BLAINE         DRIZZLE   37  37 100 S8        29.67S
LAKEVILLE      CLOUDY    36  36 100 S8        29.66F FOG
EDEN PRAIRIE   CLOUDY    38  35  89 S8        29.66S FOG
SOUTH ST PAUL  CLOUDY    37  37 100 SE5       29.68S FOG
LAKE ELMO      MIX PCPN  36  36 100 S8        29.69S
$$
MNZ001>005-007-008-013>017-022>024-027-028-171800-
   Northwest Minnesota

CITY           SKY/WX    TMP DP  RH WIND       PRES   REMARKS
BEMIDJI        CLOUDY    33  29  86 SW3       29.62S
HALLOCK        CLOUDY    21  16  79 NW14      29.68R WCI   8
ROSEAU         MOSUNNY   30  25  80 W10G16    29.62R WCI  21
WARROAD        CLOUDY    34  28  80 W9        29.61S WCI  26
CROOKSTON      MOSUNNY   28  21  74 NW17G23   29.69R WCI  16
FOSSTON        CLOUDY    34  28  80 SW9       29.64S WCI  26
DETROIT LAKES  CLOUDY    36  32  87 CALM      29.64S
MOORHEAD       CLOUDY    36  28  75 CALM      29.67R
PARK RAPIDS    CLOUDY    33  30  88 NW10      29.63R WCI  25
MAHNOMEN       FAIR      35  30  83 W8        29.63S WCI  28
$$
MNZ006-009>011-018-025>026-171800-
   North Central Minnesota

CITY           SKY/WX    TMP DP  RH WIND       PRES   REMARKS
BAUDETTE       CLOUDY    34  29  82 SW8       29.59S WCI  27
FLAG ISLAND    CLOUDY    32  28  86 W10       29.58R WCI  24
INTL FALLS     CLOUDY    34  29  82 SW8       29.62S HAZE    WCI  27
WASKISH        CLOUDY    36  30  80 SW6       29.62S
BIG FORK       CLOUDY    34  30  86 SW5       29.63R WCI  30
LONGVILLE      MIX PCPN  34  30  86 S13       29.60F WCI  25
GRAND RAPIDS   MIX PCPN  32  30  92 S12       29.64F WCI  23
CRANE LAKE     CLOUDY    30  30 100 NW3       29.66R
ORR            CLOUDY    30  28  93 W3        29.60R
COOK           CLOUDY    30  30 100 S6        29.61F WCI  24
WALKER         CLOUDY    33  30  88 NW8       29.63R WCI  26
$$
MNZ012-019>021-037-171800-
   Northeast Minnesota

CITY           SKY/WX    TMP DP  RH WIND       PRES   REMARKS
DULUTH         FRZ DRZL  31  31 100 SW8       29.67F FOG     WCI  23
ELY            LGT SNOW  30  30 100 S7        29.63F VSB 1   WCI  23
HIBBING        SNOW      31  30  96 S8        29.64F VSB 1/2 WCI  23
EVELETH        LGT SNOW  32  28  86 S7        29.66F VSB 1   WCI  26
DULUTH HARBOR  MIX PCPN  34  32  93 CALM      29.73S VSB 1
TWO HARBORS    DRIZZLE   36  30  80 S3        29.67F
SILVER BAY     LGT RAIN  34  34 100 CALM      29.68F
GRAND MARAIS     N/A     36  34  92 SW13      29.72F
G MARAIS ARPRT LGT SNOW  28  25  86 S7        29.67F WCI  21
$$
MNZ029>031-032-039>041-046>048-054>057-064-171800-
   West Central Minnesota

CITY           SKY/WX    TMP DP  RH WIND       PRES   REMARKS
FERGUS FALLS   CLOUDY    34  34 100 NW5       29.67R WCI  30
WHEATON        CLOUDY    34  30  86 W7        29.68R WCI  28
MORRIS         CLOUDY    37  32  81 SE3       29.62F
ALEXANDRIA     MOSUNNY   38  31  76 E6        29.62F
ELBOW LAKE     LGT RAIN  35  32  91 E12       29.60F WCI  26
WADENA         DRIZZLE   34  32  93 SE13      29.59F WCI  25
GLENWOOD       CLOUDY    37  32  81 NE6       29.64R
APPLETON         N/A     39  30  70 CALM      29.64R
BENSON         CLOUDY    39  32  75 CALM      29.66R
ORTONVILLE     CLOUDY    37  30  75 MISG      29.63S
MADISON        CLOUDY    43  34  70 NW6       29.64R
WILLMAR        FAIR      39  34  81 CALM      29.65R
$$
MNZ033>034-036-042>043-049>051-058-059-171800-
   Central Minnesota

CITY           SKY/WX    TMP DP  RH WIND       PRES   REMARKS
ST CLOUD       MOSUNNY   38  33  82 VRB5      29.65F
SAUK CENTRE    FAIR      37  31  81 NE3       29.65S
PAYNESVILLE    PTSUNNY   39  34  82 CALM      29.64S
AITKIN         CLOUDY    36  28  75 S6        29.65F
PINE RIVER     RAIN      34  28  80 SE8       29.67F WCI  27
BRAINERD       CLOUDY    37  30  75 SE6       29.65F
STAPLES        CLOUDY    36  28  75 S6        29.63F
LONG PRAIRIE   FAIR      36  30  80 CALM      29.66S
LITTLE FALLS   CLOUDY    37  27  65 CALM      29.67R
LITCHFIELD     PTSUNNY   39  36  87 SE10      29.62F
BUFFALO        CLOUDY    37  33  84 SE3       29.67S
MAPLE LAKE     CLOUDY    39  35  84 SE3       29.66F
HUTCHINSON     CLOUDY    40  35  83 SE6       29.64F
$$
MNZ037-044-045-052-053-171800-
   East Central Minnesota

CITY           SKY/WX    TMP DP  RH WIND       PRES   REMARKS
PRINCETON      CLOUDY    37  34  87 CALM      29.68S FOG
MORA           CLOUDY    34  32  93 S5        29.69F FOG     WCI  30
CAMBRIDGE      CLOUDY    37  37 100 CALM      29.68F FOG
RUSH CITY      CLOUDY    34  32  94 SE3       29.69S FOG
MOOSE LAKE     CLOUDY    34  32  93 S3        29.67F FOG
HINCKLEY       CLOUDY    34  34 100 S3        29.69F FOG
CLOQUET        MIX PCPN  32  30  93 CALM      29.68F
MCGREGOR       CLOUDY    34  32  93 S6        29.68F WCI  29
$$
MNZ071>073-080-081-089-090-097-098-171800-
   Southwest Minnesota

CITY           SKY/WX    TMP DP  RH WIND       PRES   REMARKS
MONTEVIDEO     CLOUDY    39  36  87 N6        29.64R
GRANITE FALLS  CLOUDY    43  36  74 W3        29.64R
CANBY          CLOUDY    42  34  72 W7        29.65R
MARSHALL       CLOUDY    44  36  73 NW10      29.63R
REDWOOD FALLS  CLOUDY    42  33  70 SE5       29.61F
OLIVIA         CLOUDY    41  34  75 SE13G20   29.59F
PIPESTONE      CLOUDY    45  37  76 NW5       29.59R
WINDOM           N/A     45  30  57 S6        29.60S
WORTHINGTON    CLOUDY    47  40  76 SE6       29.60R
JACKSON        CLOUDY    43  36  75 S7        29.61S
SLAYTON        CLOUDY    47  41  80 SW8       29.60R
$$
MNZ065>067-074>077-082>085-091>093-171800-
   South Central Minnesota

CITY           SKY/WX    TMP DP  RH WIND       PRES   REMARKS
MANKATO        CLOUDY    38  35  89 S8G17     29.65S
NEW ULM        CLOUDY    41  34  75 S6        29.62F
ST JAMES       CLOUDY    41  36  81 SE13      29.63S
FAIRMONT       CLOUDY    41  36  82 S15       29.62S
GLENCOE        CLOUDY    40  36  85 SE5       29.64S
FARIBAULT      CLOUDY    37  36  93 S10       29.66F FOG
OWATONNA       CLOUDY    37  36  93 S17G23    29.64F FOG
WASECA         CLOUDY    36  34  93 S10G17    29.66F FOG
ALBERT LEA     FOG       36  34  93 S15       29.65F VSB 1
$$
MNZ078>079-086>088-094>096-171800-
   Southeast Minnesota

CITY           SKY/WX    TMP DP  RH WIND       PRES   REMARKS
ROCHESTER      LGT SNOW  34  34 100 S22G30    29.67F FOG     WCI  22
RED WING       DRIZZLE   37  34  87 S9G16     29.69F
STANTON        CLOUDY    37  35  90 S7        29.66S FOG
DODGE CENTER   DRIZZLE   34  34 100 S17G26    29.66F WCI  23
WINONA         CLOUDY    36  34  93 SE8       29.74F
AUSTIN         RAIN      36  34  93 S10G16    29.67F
PRESTON        CLOUDY    34  32  94 S16       29.71F FOG     WCI  23
$$
ABBREVIATIONS USED IN REMARKS
   TC - TEMPERATURES IN CELSIUS
  WCI - WIND CHILL INDEX
   HX - HEAT INDEX
  VSB - VISIBILITY
$$




USA.gov is the U.S. government's official web portal to all federal, state and local government web resources and services.